,,,PA_Meas_PMT16A,,PR_Meas_QMR101_102,,RH_Meas_QMH101,,SR_Meas_QMS101,,TA_Meas_QMH101,,GenWind,,GenWind,
date,time,status,PA,status,PR,status,RH,status,SR,status,TA,status,DirAvg,status,SpdAvg,
2010-03-03, 00:00:04,VALID,1002.98,VALID,0,VALID,89.1292,VALID,0,VALID,23.2329,VALID,129,VALID,0.846094,
2010-03-03, 00:01:04,VALID,1002.98,VALID,0,VALID,88.9995,VALID,0,VALID,23.2329,VALID,127,VALID,1.03477,
2010-03-03, 00:02:04,VALID,1002.94,VALID,0,VALID,88.9385,VALID,0,VALID,23.2134,VALID,130,VALID,1.14102,
2010-03-03, 00:03:04,VALID,1002.92,VALID,0,VALID,88.9843,VALID,0,VALID,23.2134,VALID,142,VALID,1.375,
2010-03-03, 00:04:04,VALID,1002.91,VALID,0,VALID,89.1445,VALID,0,VALID,23.2134,VALID,148,VALID,1.44687,
2010-03-03, 00:05:04,VALID,1002.9,VALID,0,VALID,89.1979,VALID,0,VALID,23.2329,VALID,142,VALID,1.35664,
2010-03-03, 00:06:04,VALID,1002.91,VALID,0,VALID,89.1674,VALID,0,VALID,23.2329,VALID,145,VALID,1.23125,
2010-03-03, 00:07:04,VALID,1002.92,VALID,0,VALID,89.1826,VALID,0,VALID,23.2524,VALID,149,VALID,1.2543,
2010-03-03, 00:08:04,VALID,1002.89,VALID,0,VALID,89.1445,VALID,0,VALID,23.2507,VALID,143,VALID,1.10977,
2010-03-03, 00:09:04,VALID,1002.89,VALID,0,VALID,88.9309,VALID,0,VALID,23.2524,VALID,142,VALID,0.757813,
2010-03-03, 00:10:05,VALID,1002.9,VALID,0,VALID,88.9614,VALID,0,VALID,23.2719,VALID,142,VALID,0.630859,
2010-03-03, 00:11:05,VALID,1002.89,VALID,0,VALID,89.0682,VALID,0,VALID,23.2719,VALID,142,VALID,0.436328,
2010-03-03, 00:12:05,VALID,1002.88,VALID,0,VALID,89.0911,VALID,0,VALID,23.2915,VALID,142,VALID,0.405859,
2010-03-03, 00:13:05,VALID,1002.84,VALID,0,VALID,89.0148,VALID,0.112286,VALID,23.2915,VALID,142,VALID,0.320703,
2010-03-03, 00:14:05,VALID,1002.83,VALID,0,VALID,88.9995,VALID,0.112286,VALID,23.2702,VALID,142,VALID,0.489062,
2010-03-03, 00:15:05,VALID,1002.79,VALID,0,VALID,89.0224,VALID,0,VALID,23.2915,VALID,142,VALID,0.231641,
2010-03-03, 00:16:05,VALID,1002.76,VALID,0,VALID,88.9461,VALID,0.112286,VALID,23.2897,VALID,142,VALID,0.400391,
2010-03-03, 00:17:05,VALID,1002.74,VALID,0,VALID,88.9461,VALID,0,VALID,23.2897,VALID,142,VALID,0.302344,
2010-03-03, 00:18:05,VALID,1002.75,VALID,0,VALID,88.7096,VALID,0,VALID,23.2702,VALID,135,VALID,0.438281,
2010-03-03, 00:19:05,VALID,1002.73,VALID,0,VALID,88.8698,VALID,0,VALID,23.2915,VALID,135,VALID,0.6,
2010-03-03, 00:20:05,VALID,1002.71,VALID,0,VALID,88.8851,VALID,0,VALID,23.2719,VALID,135,VALID,0.653516,
2010-03-03, 00:21:05,VALID,1002.7,VALID,0,VALID,88.8927,VALID,0.112286,VALID,23.2719,VALID,135,VALID,0.567187,
2010-03-03, 00:22:05,VALID,1002.7,VALID,0,VALID,88.7783,VALID,0,VALID,23.2507,VALID,135,VALID,0.534766,
2010-03-03, 00:23:05,VALID,1002.65,VALID,0,VALID,88.763,VALID,0,VALID,23.2524,VALID,135,VALID,0.557031,
2010-03-03, 00:24:05,VALID,1002.65,VALID,0,VALID,88.8393,VALID,0,VALID,23.2312,VALID,135,VALID,0.521875,
2010-03-03, 00:25:05,VALID,1002.69,VALID,0,VALID,89.0911,VALID,0,VALID,23.2117,VALID,135,VALID,0.417969,
2010-03-03, 00:26:05,VALID,1002.66,VALID,0,VALID,88.9843,VALID,0,VALID,23.2329,VALID,135,VALID,0.36875,
2010-03-03, 00:27:05,VALID,1002.64,VALID,0,VALID,88.9919,VALID,0,VALID,23.2134,VALID,135,VALID,0.472266,
2010-03-03, 00:28:05,VALID,1002.62,VALID,0,VALID,89.2132,VALID,0.112286,VALID,23.1939,VALID,135,VALID,0.385156,
2010-03-03, 00:29:05,VALID,1002.62,VALID,0,VALID,89.4115,VALID,0.112286,VALID,23.2134,VALID,135,VALID,0.275,
2010-03-03, 00:30:05,VALID,1002.59,VALID,0,VALID,89.5107,VALID,0,VALID,23.2134,VALID,135,VALID,0.3125,
2010-03-03, 00:31:05,VALID,1002.61,VALID,0,VALID,89.5489,VALID,0.112286,VALID,23.2134,VALID,135,VALID,0.264844,
2010-03-03, 00:32:05,VALID,1002.65,VALID,0,VALID,89.5489,VALID,0,VALID,23.1726,VALID,135,VALID,0.185156,
2010-03-03, 00:33:05,VALID,1002.65,VALID,0,VALID,89.5565,VALID,0,VALID,23.1726,VALID,135,VALID,0.274609,
2010-03-03, 00:34:05,VALID,1002.61,VALID,0,VALID,89.2971,VALID,0,VALID,23.1141,VALID,135,VALID,0.291016,
2010-03-03, 00:35:05,VALID,1002.59,VALID,0,VALID,89.7243,VALID,0,VALID,23.1159,VALID,135,VALID,0.286719,
2010-03-03, 00:36:05,VALID,1002.57,VALID,0,VALID,89.999,VALID,0.112286,VALID,23.0946,VALID,130,VALID,0,
2010-03-03, 00:37:05,VALID,1002.53,VALID,0,VALID,90.1516,VALID,0,VALID,23.1354,VALID,130,VALID,0,
2010-03-03, 00:38:05,VALID,1002.54,VALID,0,VALID,90.1287,VALID,0,VALID,23.0946,VALID,130,VALID,0,
2010-03-03, 00:39:05,VALID,1002.56,VALID,0,VALID,90.2737,VALID,0,VALID,23.1159,VALID,130,VALID,0,
2010-03-03, 00:40:05,VALID,1002.58,VALID,0,VALID,90.2355,VALID,0,VALID,23.0964,VALID,130,VALID,0,
2010-03-03, 00:41:05,VALID,1002.55,VALID,0,VALID,90.3118,VALID,0,VALID,23.0751,VALID,130,VALID,0,
2010-03-03, 00:42:05,VALID,1002.56,VALID,0,VALID,90.411,VALID,0,VALID,23.0556,VALID,130,VALID,0,
2010-03-03, 00:43:05,VALID,1002.52,VALID,0,VALID,90.3881,VALID,0.112286,VALID,23.0573,VALID,130,VALID,0,
2010-03-03, 00:44:05,VALID,1002.53,VALID,0,VALID,90.4949,VALID,0,VALID,23.0378,VALID,130,VALID,0,
2010-03-03, 00:45:05,VALID,1002.49,VALID,0,VALID,90.556,VALID,0,VALID,23.0378,VALID,130,VALID,0.0457031,
2010-03-03, 00:46:05,VALID,1002.46,VALID,0,VALID,90.4873,VALID,0,VALID,23.0378,VALID,130,VALID,0.355078,
2010-03-03, 00:47:05,VALID,1002.48,VALID,0,VALID,90.5178,VALID,0,VALID,23.0378,VALID,114,VALID,0.61875,
2010-03-03, 00:48:05,VALID,1002.46,VALID,0,VALID,90.2508,VALID,0,VALID,23.0183,VALID,111,VALID,0.690234,
2010-03-03, 00:49:05,VALID,1002.48,VALID,0,VALID,90.2737,VALID,0,VALID,22.9776,VALID,111,VALID,0.489062,
2010-03-03, 00:50:05,VALID,1002.46,VALID,0,VALID,90.1363,VALID,0,VALID,22.9988,VALID,111,VALID,0.820703,
2010-03-03, 00:51:05,VALID,1002.5,VALID,0,VALID,89.8006,VALID,0,VALID,22.9988,VALID,111,VALID,0.765234,
2010-03-03, 00:52:05,VALID,1002.51,VALID,0,VALID,89.9837,VALID,0,VALID,22.9988,VALID,111,VALID,0.725391,
2010-03-03, 00:53:05,VALID,1002.52,VALID,0,VALID,89.7472,VALID,0,VALID,22.9988,VALID,109,VALID,0.60625,
2010-03-03, 00:54:05,VALID,1002.52,VALID,0,VALID,89.8464,VALID,0,VALID,22.9793,VALID,92,VALID,0.655859,
2010-03-03, 00:55:05,VALID,1002.47,VALID,0,VALID,89.9685,VALID,0,VALID,22.9988,VALID,85,VALID,0.698438,
2010-03-03, 00:56:05,VALID,1002.43,VALID,0,VALID,89.8464,VALID,0,VALID,22.9581,VALID,85,VALID,0.672266,
2010-03-03, 00:57:05,VALID,1002.38,VALID,0,VALID,90.0753,VALID,0,VALID,22.9793,VALID,90,VALID,0.716406,
2010-03-03, 00:58:05,VALID,1002.39,VALID,0,VALID,89.9074,VALID,0,VALID,22.9385,VALID,96,VALID,0.965625,
2010-03-03, 00:59:05,VALID,1002.39,VALID,0,VALID,89.854,VALID,0,VALID,22.9208,VALID,95,VALID,0.933984,
2010-03-03, 01:00:05,VALID,1002.38,VALID,0,VALID,89.8846,VALID,0,VALID,22.8835,VALID,75,VALID,1.06211,
2010-03-03, 01:01:05,VALID,1002.35,VALID,0,VALID,89.7625,VALID,0,VALID,22.8445,VALID,73,VALID,1.18867,
2010-03-03, 01:02:05,VALID,1002.31,VALID,0,VALID,90.0371,VALID,0,VALID,22.7842,VALID,76,VALID,1.21055,
2010-03-03, 01:03:05,VALID,1002.3,VALID,0,VALID,90.0829,VALID,0,VALID,22.786,VALID,76,VALID,0.916797,
2010-03-03, 01:04:05,VALID,1002.26,VALID,0,VALID,90.2508,VALID,0,VALID,22.7647,VALID,76,VALID,0.826563,
2010-03-03, 01:05:05,VALID,1002.25,VALID,0,VALID,90.3728,VALID,0,VALID,22.8055,VALID,78,VALID,0.798047,
2010-03-03, 01:06:05,VALID,1002.23,VALID,0,VALID,90.266,VALID,0,VALID,22.8055,VALID,84,VALID,0.784375,
2010-03-03, 01:07:05,VALID,1002.21,VALID,0,VALID,90.1821,VALID,0,VALID,22.8445,VALID,84,VALID,0.752734,
2010-03-03, 01:08:05,VALID,1002.2,VALID,0,VALID,90.1211,VALID,0,VALID,22.8445,VALID,81,VALID,0.723047,
2010-03-03, 01:09:05,VALID,1002.21,VALID,0,VALID,89.793,VALID,0,VALID,22.8445,VALID,73,VALID,0.985937,
2010-03-03, 01:10:05,VALID,1002.21,VALID,0,VALID,89.7243,VALID,0,VALID,22.7842,VALID,73,VALID,0.946094,
2010-03-03, 01:11:05,VALID,1002.19,VALID,0,VALID,89.854,VALID,0,VALID,22.8055,VALID,74,VALID,0.966406,
2010-03-03, 01:12:05,VALID,1002.2,VALID,0,VALID,89.7091,VALID,0,VALID,22.7664,VALID,91,VALID,1.11406,
2010-03-03, 01:13:05,VALID,1002.21,VALID,0,VALID,89.732,VALID,0,VALID,22.7469,VALID,92,VALID,0.952344,
2010-03-03, 01:14:05,VALID,1002.22,VALID,0,VALID,89.9074,VALID,0,VALID,22.7469,VALID,93,VALID,0.832031,
2010-03-03, 01:15:05,VALID,1002.25,VALID,0,VALID,89.8159,VALID,0,VALID,22.7452,VALID,83,VALID,0.918359,
2010-03-03, 01:16:05,VALID,1002.26,VALID,0,VALID,89.6633,VALID,0,VALID,22.7045,VALID,66,VALID,1.0543,
2010-03-03, 01:17:05,VALID,1002.22,VALID,0,VALID,89.2818,VALID,0,VALID,22.6867,VALID,60,VALID,0.848047,
2010-03-03, 01:18:05,VALID,1002.19,VALID,0,VALID,89.1674,VALID,0,VALID,22.6282,VALID,60,VALID,0.0195313,
2010-03-03, 01:19:05,VALID,1002.19,VALID,0,VALID,89.3047,VALID,0,VALID,22.5696,VALID,60,VALID,0.0460938,
2010-03-03, 01:20:05,VALID,1002.18,VALID,0,VALID,89.4802,VALID,0,VALID,22.5501,VALID,60,VALID,0.0265625,
2010-03-03, 01:21:05,VALID,1002.21,VALID,0,VALID,89.6175,VALID,0,VALID,22.5111,VALID,60,VALID,0.127344,
2010-03-03, 01:22:05,VALID,1002.19,VALID,0,VALID,89.732,VALID,0,VALID,22.5111,VALID,60,VALID,0,
2010-03-03, 01:23:05,VALID,1002.21,VALID,0,VALID,89.8311,VALID,0,VALID,22.4721,VALID,60,VALID,0,
2010-03-03, 01:24:05,VALID,1002.22,VALID,0,VALID,89.9685,VALID,0,VALID,22.4916,VALID,60,VALID,0,
2010-03-03, 01:25:05,VALID,1002.22,VALID,0,VALID,90.0295,VALID,0,VALID,22.4509,VALID,78,VALID,0.505469,
2010-03-03, 01:26:05,VALID,1002.21,VALID,0,VALID,90.3576,VALID,0,VALID,22.4721,VALID,82,VALID,0.600781,
2010-03-03, 01:27:05,VALID,1002.22,VALID,0,VALID,90.5483,VALID,0,VALID,22.5111,VALID,82,VALID,0.507422,
2010-03-03, 01:28:05,VALID,1002.21,VALID,0,VALID,90.4339,VALID,0,VALID,22.5501,VALID,82,VALID,0.366016,
2010-03-03, 01:29:05,VALID,1002.21,VALID,0,VALID,90.1974,VALID,0,VALID,22.5501,VALID,82,VALID,0.128906,
2010-03-03, 01:30:05,VALID,1002.19,VALID,0,VALID,90.0295,VALID,0,VALID,22.5111,VALID,83,VALID,0.142578,
2010-03-03, 01:31:05,VALID,1002.17,VALID,0,VALID,89.9914,VALID,0,VALID,22.4721,VALID,83,VALID,0,
2010-03-03, 01:32:05,VALID,1002.15,VALID,0,VALID,90.0295,VALID,0,VALID,22.4721,VALID,83,VALID,0.003125,
2010-03-03, 01:33:05,VALID,1002.15,VALID,0,VALID,90.1592,VALID,0,VALID,22.4136,VALID,83,VALID,0.589844,
2010-03-03, 01:34:05,VALID,1002.13,VALID,0,VALID,90.266,VALID,0,VALID,22.3941,VALID,87,VALID,0.693359,
2010-03-03, 01:35:05,VALID,1002.11,VALID,0,VALID,90.5483,VALID,0,VALID,22.4136,VALID,105,VALID,0.708984,
2010-03-03, 01:36:05,VALID,1002.12,VALID,0,VALID,90.6399,VALID,0,VALID,22.4136,VALID,105,VALID,0.823828,
2010-03-03, 01:37:05,VALID,1002.09,VALID,0,VALID,90.8611,VALID,0,VALID,22.3941,VALID,105,VALID,0.710938,
2010-03-03, 01:38:05,VALID,1002.11,VALID,0,VALID,91.0977,VALID,0,VALID,22.4526,VALID,110,VALID,0.685156,
2010-03-03, 01:39:05,VALID,1002.11,VALID,0,VALID,91.174,VALID,0,VALID,22.4916,VALID,107,VALID,0.656641,
2010-03-03, 01:40:05,VALID,1002.16,VALID,0,VALID,91.2197,VALID,0,VALID,22.5306,VALID,125,VALID,0.648047,
2010-03-03, 01:41:05,VALID,1002.15,VALID,0,VALID,91.1129,VALID,0,VALID,22.5501,VALID,126,VALID,0.335156,
2010-03-03, 01:42:05,VALID,1002.16,VALID,0,VALID,91.1129,VALID,0,VALID,22.5892,VALID,126,VALID,0.631641,
2010-03-03, 01:43:05,VALID,1002.15,VALID,0,VALID,90.9985,VALID,0,VALID,22.5892,VALID,126,VALID,0.308984,
2010-03-03, 01:44:05,VALID,1002.14,VALID,0,VALID,90.9374,VALID,0,VALID,22.5874,VALID,135,VALID,1.39531,
2010-03-03, 01:45:05,VALID,1002.14,VALID,0,VALID,90.7696,VALID,0,VALID,22.6087,VALID,137,VALID,1.375,
2010-03-03, 01:46:05,VALID,1002.11,VALID,0,VALID,90.8611,VALID,0,VALID,22.6264,VALID,137,VALID,0.969141,
2010-03-03, 01:47:05,VALID,1002.1,VALID,0,VALID,90.8001,VALID,0,VALID,22.6672,VALID,141,VALID,0.948047,
2010-03-03, 01:48:05,VALID,1002.08,VALID,0,VALID,90.617,VALID,0,VALID,22.7062,VALID,140,VALID,0.491406,
2010-03-03, 01:49:05,VALID,1002.09,VALID,0,VALID,90.3728,VALID,0,VALID,22.7045,VALID,140,VALID,0.269922,
2010-03-03, 01:50:05,VALID,1002.07,VALID,0,VALID,90.2966,VALID,0,VALID,22.7062,VALID,140,VALID,0.123438,
2010-03-03, 01:51:05,VALID,1002.09,VALID,0,VALID,90.2431,VALID,0,VALID,22.6867,VALID,140,VALID,0.196484,
2010-03-03, 01:52:05,VALID,1002.06,VALID,0,VALID,90.1287,VALID,0,VALID,22.646,VALID,140,VALID,0.0136719,
2010-03-03, 01:53:05,VALID,1002.08,VALID,0,VALID,90.1134,VALID,0,VALID,22.6672,VALID,140,VALID,0.209766,
2010-03-03, 01:54:05,VALID,1002.08,VALID,0,VALID,90.0829,VALID,0,VALID,22.6087,VALID,360,VALID,0.601953,
2010-03-03, 01:55:05,VALID,1002.06,VALID,0,VALID,90.472,VALID,0,VALID,22.6282,VALID,360,VALID,0.521875,
2010-03-03, 01:56:05,VALID,1002.03,VALID,0,VALID,90.4415,VALID,0,VALID,22.5892,VALID,360,VALID,0.644141,
2010-03-03, 01:57:05,VALID,1002.03,VALID,0,VALID,90.7238,VALID,0,VALID,22.6069,VALID,21,VALID,0.474609,
2010-03-03, 01:58:05,VALID,1002,VALID,0,VALID,90.678,VALID,0,VALID,22.6087,VALID,22,VALID,0.213281,
2010-03-03, 01:59:05,VALID,1002.02,VALID,0,VALID,90.7238,VALID,0,VALID,22.6087,VALID,108,VALID,0.580859,
2010-03-03, 02:00:05,VALID,1002.03,VALID,0,VALID,90.8688,VALID,0,VALID,22.5892,VALID,108,VALID,0.378516,
2010-03-03, 02:01:05,VALID,1002.01,VALID,0,VALID,90.8383,VALID,0,VALID,22.6104,VALID,108,VALID,0,
2010-03-03, 02:02:05,VALID,1001.96,VALID,0,VALID,90.8077,VALID,0,VALID,22.6104,VALID,108,VALID,0,
2010-03-03, 02:03:05,VALID,1001.97,VALID,0,VALID,90.7849,VALID,0,VALID,22.5696,VALID,108,VALID,0,
2010-03-03, 02:04:05,VALID,1001.92,VALID,0,VALID,90.7925,VALID,0,VALID,22.5696,VALID,108,VALID,0,
2010-03-03, 02:05:05,VALID,1001.91,VALID,0,VALID,90.7314,VALID,0,VALID,22.5714,VALID,108,VALID,0,
2010-03-03, 02:06:05,VALID,1001.87,VALID,0,VALID,90.6551,VALID,0,VALID,22.5111,VALID,108,VALID,0,
2010-03-03, 02:07:05,VALID,1001.83,VALID,0,VALID,90.7696,VALID,0,VALID,22.5128,VALID,108,VALID,0,
2010-03-03, 02:08:05,VALID,1001.82,VALID,0,VALID,90.8459,VALID,0,VALID,22.5128,VALID,108,VALID,0,
2010-03-03, 02:09:05,VALID,1001.82,VALID,0,VALID,90.8383,VALID,0,VALID,22.4933,VALID,108,VALID,0,
2010-03-03, 02:10:05,VALID,1001.8,VALID,0,VALID,90.8001,VALID,0,VALID,22.4738,VALID,108,VALID,0,
2010-03-03, 02:11:05,VALID,1001.78,VALID,0,VALID,90.9603,VALID,0,VALID,22.4543,VALID,108,VALID,0,
2010-03-03, 02:12:05,VALID,1001.78,VALID,0,VALID,91.0748,VALID,0,VALID,22.4543,VALID,108,VALID,0,
2010-03-03, 02:13:05,VALID,1001.79,VALID,0,VALID,91.1663,VALID,0,VALID,22.4543,VALID,108,VALID,0,
2010-03-03, 02:14:05,VALID,1001.76,VALID,0,VALID,91.2655,VALID,0,VALID,22.4738,VALID,108,VALID,0,
2010-03-03, 02:15:05,VALID,1001.77,VALID,0,VALID,91.3494,VALID,0,VALID,22.4721,VALID,108,VALID,0,
2010-03-03, 02:16:05,VALID,1001.74,VALID,0,VALID,91.4257,VALID,0,VALID,22.4721,VALID,108,VALID,0,
2010-03-03, 02:17:05,VALID,1001.75,VALID,0,VALID,91.6012,VALID,0,VALID,22.4916,VALID,108,VALID,0,
2010-03-03, 02:18:05,VALID,1001.74,VALID,0,VALID,91.7462,VALID,0,VALID,22.5306,VALID,108,VALID,0,
2010-03-03, 02:19:05,VALID,1001.71,VALID,0,VALID,91.7538,VALID,0,VALID,22.5501,VALID,108,VALID,0,
2010-03-03, 02:20:05,VALID,1001.72,VALID,0,VALID,91.6775,VALID,0,VALID,22.5909,VALID,123,VALID,0.604297,
2010-03-03, 02:21:05,VALID,1001.68,VALID,0,VALID,91.7385,VALID,0,VALID,22.5696,VALID,122,VALID,0.351953,
2010-03-03, 02:22:05,VALID,1001.7,VALID,0,VALID,91.7843,VALID,0,VALID,22.5892,VALID,123,VALID,0.212109,
2010-03-03, 02:23:05,VALID,1001.66,VALID,0,VALID,91.7462,VALID,0,VALID,22.6299,VALID,122,VALID,0.157422,
2010-03-03, 02:24:05,VALID,1001.7,VALID,0,VALID,91.6851,VALID,0,VALID,22.6689,VALID,122,VALID,0,
2010-03-03, 02:25:05,VALID,1001.64,VALID,0,VALID,91.5097,VALID,0,VALID,22.6299,VALID,123,VALID,0,
2010-03-03, 02:26:05,VALID,1001.65,VALID,0,VALID,91.3342,VALID,0,VALID,22.5892,VALID,122,VALID,0,
2010-03-03, 02:27:05,VALID,1001.62,VALID,0,VALID,91.441,VALID,0,VALID,22.5909,VALID,122,VALID,0,
2010-03-03, 02:28:05,VALID,1001.6,VALID,0,VALID,91.6317,VALID,0,VALID,22.6104,VALID,124,VALID,0,
2010-03-03, 02:29:05,VALID,1001.61,VALID,0,VALID,91.6775,VALID,0,VALID,22.6087,VALID,131,VALID,0.655469,
2010-03-03, 02:30:05,VALID,1001.59,VALID,0,VALID,91.5707,VALID,0,VALID,22.6689,VALID,132,VALID,0.584766,
2010-03-03, 02:31:05,VALID,1001.59,VALID,0,VALID,91.6165,VALID,0,VALID,22.6689,VALID,132,VALID,0.545703,
2010-03-03, 02:32:05,VALID,1001.57,VALID,0,VALID,91.4105,VALID,0,VALID,22.6672,VALID,132,VALID,0.341406,
2010-03-03, 02:33:05,VALID,1001.59,VALID,0,VALID,91.3037,VALID,0,VALID,22.6477,VALID,132,VALID,0.0105469,
2010-03-03, 02:34:05,VALID,1001.62,VALID,0,VALID,91.2197,VALID,0,VALID,22.6282,VALID,132,VALID,0,
2010-03-03, 02:35:05,VALID,1001.64,VALID,0,VALID,91.3494,VALID,0,VALID,22.6494,VALID,132,VALID,0,
2010-03-03, 02:36:05,VALID,1001.63,VALID,0,VALID,91.4181,VALID,0,VALID,22.6494,VALID,132,VALID,0,
2010-03-03, 02:37:05,VALID,1001.64,VALID,0,VALID,91.4486,VALID,0,VALID,22.6689,VALID,132,VALID,0,
2010-03-03, 02:38:05,VALID,1001.65,VALID,0,VALID,91.4028,VALID,0,VALID,22.6689,VALID,132,VALID,0,
2010-03-03, 02:39:05,VALID,1001.69,VALID,0,VALID,91.3037,VALID,0,VALID,22.6689,VALID,132,VALID,0,
2010-03-03, 02:40:05,VALID,1001.76,VALID,0,VALID,91.3418,VALID,0,VALID,22.6477,VALID,132,VALID,0,
2010-03-03, 02:41:05,VALID,1001.76,VALID,0,VALID,91.1511,VALID,0,VALID,22.6282,VALID,118,VALID,0.342578,
2010-03-03, 02:42:05,VALID,1001.78,VALID,0,VALID,90.8001,VALID,0,VALID,22.5892,VALID,109,VALID,0.537891,
2010-03-03, 02:43:05,VALID,1001.75,VALID,0,VALID,90.4797,VALID,0,VALID,22.5323,VALID,108,VALID,0.366016,
2010-03-03, 02:44:05,VALID,1001.71,VALID,0,VALID,90.7009,VALID,0,VALID,22.4348,VALID,108,VALID,0.308203,
2010-03-03, 02:45:05,VALID,1001.7,VALID,0,VALID,90.6399,VALID,0,VALID,22.3534,VALID,49,VALID,0.521875,
2010-03-03, 02:46:05,VALID,1001.7,VALID,0,VALID,90.9451,VALID,0,VALID,22.3144,VALID,29,VALID,0.574219,
2010-03-03, 02:47:05,VALID,1001.68,VALID,0,VALID,91.2274,VALID,0.112286,VALID,22.3161,VALID,20,VALID,0.555078,
2010-03-03, 02:48:05,VALID,1001.67,VALID,0,VALID,91.0671,VALID,0,VALID,22.2576,VALID,19,VALID,0.733594,
2010-03-03, 02:49:05,VALID,1001.66,VALID,0,VALID,91.5707,VALID,0,VALID,22.2381,VALID,20,VALID,0.803906,
2010-03-03, 02:50:05,VALID,1001.65,VALID,0,VALID,91.1206,VALID,0,VALID,22.1795,VALID,20,VALID,0.899219,
2010-03-03, 02:51:05,VALID,1001.62,VALID,0,VALID,90.968,VALID,0,VALID,22.082,VALID,26,VALID,1.05352,
2010-03-03, 02:52:05,VALID,1001.63,VALID,0,VALID,91.5097,VALID,0,VALID,22.043,VALID,26,VALID,0.558203,
2010-03-03, 02:53:05,VALID,1001.64,VALID,0,VALID,91.7004,VALID,0,VALID,22.0218,VALID,26,VALID,0.583203,
2010-03-03, 02:54:05,VALID,1001.64,VALID,0,VALID,91.7996,VALID,0,VALID,22.004,VALID,43,VALID,0.7625,
2010-03-03, 02:55:05,VALID,1001.64,VALID,0,VALID,91.9598,VALID,0,VALID,22.004,VALID,46,VALID,0.800391,
2010-03-03, 02:56:04,VALID,1001.66,VALID,0,VALID,92.2345,VALID,0,VALID,22.0218,VALID,46,VALID,0.833203,
2010-03-03, 02:57:04,VALID,1001.64,VALID,0,VALID,92.2192,VALID,0,VALID,22.0413,VALID,46,VALID,0.633984,
2010-03-03, 02:58:04,VALID,1001.68,VALID,0,VALID,92.1353,VALID,0,VALID,22.0625,VALID,46,VALID,0.665625,
2010-03-03, 02:59:04,VALID,1001.71,VALID,0,VALID,92.12,VALID,0,VALID,22.043,VALID,48,VALID,0.606641,
2010-03-03, 03:00:04,VALID,1001.7,VALID,0,VALID,92.1582,VALID,0,VALID,22.0235,VALID,50,VALID,0.600781,
2010-03-03, 03:01:04,VALID,1001.7,VALID,0,VALID,92.2421,VALID,0,VALID,22.004,VALID,69,VALID,0.566016,
2010-03-03, 03:02:04,VALID,1001.69,VALID,0,VALID,92.4252,VALID,0,VALID,22.043,VALID,73,VALID,0.624219,
2010-03-03, 03:03:04,VALID,1001.69,VALID,0,VALID,92.532,VALID,0,VALID,22.082,VALID,87,VALID,0.691406,
2010-03-03, 03:04:04,VALID,1001.7,VALID,0,VALID,92.6007,VALID,0.112286,VALID,22.1015,VALID,95,VALID,0.804688,
2010-03-03, 03:05:04,VALID,1001.7,VALID,0,VALID,92.4634,VALID,0.112286,VALID,22.1405,VALID,101,VALID,0.925,
2010-03-03, 03:06:04,VALID,1001.72,VALID,0,VALID,92.265,VALID,0,VALID,22.1015,VALID,101,VALID,1.06016,
2010-03-03, 03:07:04,VALID,1001.71,VALID,0,VALID,92.265,VALID,0,VALID,22.1015,VALID,101,VALID,0.772656,
2010-03-03, 03:08:04,VALID,1001.71,VALID,0,VALID,92.12,VALID,0,VALID,22.0625,VALID,109,VALID,0.61875,
2010-03-03, 03:09:04,VALID,1001.72,VALID,0,VALID,91.9903,VALID,0,VALID,22.004,VALID,109,VALID,0.583594,
2010-03-03, 03:10:04,VALID,1001.72,VALID,0,VALID,91.9064,VALID,0,VALID,21.9438,VALID,109,VALID,0.453906,
2010-03-03, 03:11:04,VALID,1001.7,VALID,0,VALID,91.8683,VALID,0.112286,VALID,21.9048,VALID,109,VALID,0.282813,
2010-03-03, 03:12:04,VALID,1001.71,VALID,0,VALID,91.8072,VALID,0.112286,VALID,21.8463,VALID,109,VALID,0.160547,
2010-03-03, 03:13:04,VALID,1001.69,VALID,0,VALID,91.8683,VALID,0.112286,VALID,21.809,VALID,109,VALID,0.294531,
2010-03-03, 03:14:04,VALID,1001.69,VALID,0,VALID,92.0971,VALID,0,VALID,21.7895,VALID,109,VALID,0.338281,
2010-03-03, 03:15:04,VALID,1001.68,VALID,0,VALID,92.3642,VALID,0,VALID,21.8106,VALID,63,VALID,0.522266,
2010-03-03, 03:16:04,VALID,1001.71,VALID,0,VALID,92.5854,VALID,0,VALID,21.848,VALID,42,VALID,0.666406,
2010-03-03, 03:17:04,VALID,1001.7,VALID,0,VALID,92.7075,VALID,0,VALID,21.9082,VALID,37,VALID,0.811328,
2010-03-03, 03:18:04,VALID,1001.68,VALID,0,VALID,92.738,VALID,0,VALID,21.9455,VALID,37,VALID,0.809375,
2010-03-03, 03:19:04,VALID,1001.66,VALID,0,VALID,92.738,VALID,0,VALID,21.9862,VALID,40,VALID,0.745313,
2010-03-03, 03:20:04,VALID,1001.66,VALID,0,VALID,92.6083,VALID,0,VALID,21.9862,VALID,40,VALID,0.642578,
2010-03-03, 03:21:04,VALID,1001.63,VALID,0,VALID,92.4863,VALID,0,VALID,21.9472,VALID,40,VALID,0.597656,
2010-03-03, 03:22:04,VALID,1001.64,VALID,0,VALID,92.5244,VALID,0,VALID,21.926,VALID,40,VALID,0.360156,
2010-03-03, 03:23:04,VALID,1001.64,VALID,0,VALID,92.4939,VALID,0,VALID,21.9082,VALID,40,VALID,0.371875,
2010-03-03, 03:24:04,VALID,1001.64,VALID,0,VALID,92.5091,VALID,0,VALID,21.887,VALID,40,VALID,0.591797,
2010-03-03, 03:25:04,VALID,1001.63,VALID,0,VALID,92.5549,VALID,0,VALID,21.9082,VALID,31,VALID,0.721875,
2010-03-03, 03:26:04,VALID,1001.63,VALID,0,VALID,92.6236,VALID,0,VALID,21.9082,VALID,28,VALID,0.629297,
2010-03-03, 03:27:04,VALID,1001.64,VALID,0,VALID,92.6465,VALID,0,VALID,21.9082,VALID,28,VALID,0.616797,
2010-03-03, 03:28:04,VALID,1001.65,VALID,0,VALID,92.7762,VALID,0,VALID,21.9277,VALID,28,VALID,0.637891,
2010-03-03, 03:29:04,VALID,1001.64,VALID,0,VALID,92.7609,VALID,0,VALID,21.926,VALID,37,VALID,0.864062,
2010-03-03, 03:30:04,VALID,1001.6,VALID,0,VALID,92.8448,VALID,0,VALID,21.9472,VALID,38,VALID,0.91875,
2010-03-03, 03:31:04,VALID,1001.6,VALID,0,VALID,92.8677,VALID,0,VALID,21.9667,VALID,40,VALID,0.828125,
2010-03-03, 03:32:04,VALID,1001.62,VALID,0,VALID,92.5854,VALID,0,VALID,21.9082,VALID,43,VALID,0.629687,
2010-03-03, 03:33:04,VALID,1001.62,VALID,0,VALID,92.3642,VALID,0,VALID,21.8106,VALID,43,VALID,0.348437,
2010-03-03, 03:34:04,VALID,1001.62,VALID,0,VALID,92.2955,VALID,0,VALID,21.7326,VALID,43,VALID,0.329688,
2010-03-03, 03:35:04,VALID,1001.6,VALID,0,VALID,92.326,VALID,0,VALID,21.653,VALID,43,VALID,0.120703,
2010-03-03, 03:36:04,VALID,1001.62,VALID,0,VALID,92.3489,VALID,0,VALID,21.5945,VALID,43,VALID,0.16875,
2010-03-03, 03:37:04,VALID,1001.62,VALID,0,VALID,92.5778,VALID,0,VALID,21.5766,VALID,43,VALID,0.329297,
2010-03-03, 03:38:04,VALID,1001.61,VALID,0,VALID,92.7075,VALID,0,VALID,21.5961,VALID,43,VALID,0.0101562,
2010-03-03, 03:39:04,VALID,1001.63,VALID,0,VALID,92.7685,VALID,0,VALID,21.6156,VALID,43,VALID,0,
2010-03-03, 03:40:04,VALID,1001.61,VALID,0,VALID,92.8296,VALID,0,VALID,21.614,VALID,43,VALID,0,
2010-03-03, 03:41:04,VALID,1001.64,VALID,0,VALID,92.7762,VALID,0,VALID,21.6351,VALID,43,VALID,0,
2010-03-03, 03:42:04,VALID,1001.63,VALID,0,VALID,92.7838,VALID,0,VALID,21.6351,VALID,43,VALID,0,
2010-03-03, 03:43:04,VALID,1001.64,VALID,0,VALID,92.7991,VALID,0,VALID,21.6156,VALID,43,VALID,0,
2010-03-03, 03:44:04,VALID,1001.62,VALID,0,VALID,92.8906,VALID,0,VALID,21.6335,VALID,43,VALID,0,
2010-03-03, 03:45:04,VALID,1001.64,VALID,0,VALID,92.9288,VALID,0,VALID,21.6741,VALID,43,VALID,0,
2010-03-03, 03:46:04,VALID,1001.65,VALID,0,VALID,92.9745,VALID,0,VALID,21.7131,VALID,43,VALID,0,
2010-03-03, 03:47:04,VALID,1001.66,VALID,0,VALID,92.9669,VALID,0,VALID,21.7326,VALID,43,VALID,0.00117188,
2010-03-03, 03:48:04,VALID,1001.68,VALID,0,VALID,92.9517,VALID,0,VALID,21.7326,VALID,43,VALID,0,